Yankton, SD

9:42 PM CDT on September 16, 2019 (GMT -0500)
Gurney Municipal

Weather History for KYKN - August, 2019

Change the Weather History Date:

Saturday, August 24, 2019

  Actual Average Record
Temperature  
Mean Temperature 68 °F -  
Max Temperature 73 °F 85 °F 100 °F (2003)
Min Temperature 62 °F 59 °F 44 °F (2015)
Cooling Degree Days 2    
Growing Degree Days 18 (Base 50)    
Moisture  
Dew Point 62 °F    
Average Humidity 81    
Maximum Humidity 93    
Minimum Humidity 69    
Precipitation  
Precipitation 0.01 in - - ()
Sea Level Pressure  
Sea Level Pressure 30.08 in    
Wind  
Wind Speed 10 mph ()    
Max Wind Speed 21 mph    
Max Gust Speed 24 mph    
Visibility 10.0 miles    
Events Rain    
Averages and records for this station are not official NWS values.
T = Trace of Precipitation, MM = Missing Value Source: Averaged Metar Reports

Daily Weather History Graph

Daily Weather History Graph

Search for Another Location

Airport or City:

Astronomy

Aug. 24, 2019 Rise Set
Actual Time 6:45 AM CDT 8:17 PM CDT
Civil Twilight 6:15 AM CDT 8:47 PM CDT
Nautical Twilight 5:39 AM CDT 9:23 PM CDT
Astronomical Twilight 5:00 AM CDT 10:01 PM CDT
Moon 12:36 AM CDT (8/24) 3:39 PM CDT (8/24)
Length of Visible Light 14h 32m
Length of Day
13h 32m
Last Quarter, 39% of the Moon is Illuminated
Aug 24
Last Quarter
Aug 30
New
Sep 5
First Quarter
Sep 13
Full
Sep 21
Last Quarter

Hourly Weather History & Observations

Time (CDT) Temp. Dew Point Humidity Pressure Visibility Wind Dir Wind Speed Gust Speed Precip Events Conditions
12:56 AM 66.0 °F 62.1 °F 87% 30.13 in 10.0 mi SE 12.7 mph - N/A   Clear
1:56 AM 64.9 °F 61.0 °F 87% 30.13 in 10.0 mi SE 12.7 mph - N/A   Clear
2:56 AM 64.0 °F 61.0 °F 90% 30.14 in 10.0 mi SE 8.1 mph - N/A   Clear
3:56 AM 62.1 °F 60.1 °F 93% 30.13 in 10.0 mi ESE 5.8 mph - N/A   Clear
4:56 AM 63.0 °F 60.1 °F 90% 30.13 in 10.0 mi SE 8.1 mph - N/A   Scattered Clouds
5:56 AM 63.0 °F 59.0 °F 87% 30.12 in 10.0 mi ESE 8.1 mph - N/A   Clear
6:56 AM 62.1 °F 59.0 °F 90% 30.12 in 10.0 mi East 6.9 mph - N/A   Scattered Clouds
7:56 AM 63.0 °F 60.1 °F 90% 30.12 in 10.0 mi East 6.9 mph - N/A   Partly Cloudy
8:56 AM 66.0 °F 61.0 °F 84% 30.12 in 10.0 mi ESE 12.7 mph - N/A   Clear
9:56 AM 68.0 °F 62.1 °F 81% 30.11 in 10.0 mi ESE 10.4 mph - N/A   Scattered Clouds
10:29 AM 69.8 °F 62.6 °F 78% 30.09 in 10.0 mi SE 12.7 mph - N/A   Mostly Cloudy
10:56 AM 72.0 °F 63.0 °F 73% 30.10 in 10.0 mi SE 12.7 mph - N/A   Mostly Cloudy
11:56 AM 73.0 °F 63.0 °F 71% 30.08 in 10.0 mi ESE 20.7 mph 24.2 mph N/A   Scattered Clouds
12:56 PM 73.0 °F 64.0 °F 73% 30.07 in 10.0 mi SE 19.6 mph 24.2 mph N/A   Mostly Cloudy
1:56 PM 73.0 °F 63.0 °F 71% 30.07 in 10.0 mi SE 16.1 mph 20.7 mph N/A   Overcast
2:56 PM 73.0 °F 63.0 °F 71% 30.06 in 10.0 mi SE 17.3 mph - N/A   Overcast
3:15 PM 73.4 °F 62.6 °F 69% 30.05 in 10.0 mi SE 11.5 mph - 0.00 in Rain Light Rain
3:56 PM 72.0 °F 63.0 °F 73% 30.06 in 10.0 mi SE 15.0 mph 20.7 mph 0.00 in   Partly Cloudy
4:56 PM 71.1 °F 63.0 °F 75% 30.06 in 10.0 mi SE 13.8 mph 20.7 mph 0.00 in Rain Light Rain
5:56 PM 71.1 °F 62.1 °F 73% 30.05 in 10.0 mi SE 15.0 mph 21.9 mph 0.00 in   Partly Cloudy
6:56 PM 70.0 °F 63.0 °F 78% 30.04 in 10.0 mi ESE 11.5 mph - N/A   Mostly Cloudy
7:56 PM 69.1 °F 62.1 °F 78% 30.04 in 10.0 mi ESE 10.4 mph - N/A   Overcast
8:56 PM 69.1 °F 61.0 °F 75% 30.04 in 10.0 mi ESE 11.5 mph - N/A   Overcast
9:56 PM 66.9 °F 61.0 °F 81% 30.04 in 10.0 mi ESE 12.7 mph - N/A   Overcast
10:21 PM 66.2 °F 60.8 °F 83% 30.01 in 10.0 mi ESE 12.7 mph 20.7 mph N/A   Overcast
10:56 PM 64.9 °F 62.1 °F 90% 30.03 in 9.0 mi SE 12.7 mph 17.3 mph 0.00 in Rain Light Rain
11:56 PM 64.9 °F 62.1 °F 90% 30.01 in 10.0 mi SE 10.4 mph - 0.01 in   Overcast